Regional Weather Roundup
Issued by NWS

Home | Current Version | Previous Version | Text Only | Print | Product List | Glossary On
Versions: 1 2 3 4 5 6 7 8 9 10 11 12 13 14 15 16 17 18 19 20 21 22 23 24 25 26 27
000
ASUS44 KLIX 211913
RWRLA
LOUISIANA WEATHER ROUNDUP
NATIONAL WEATHER SERVICE NEW ORLEANS LA
100 PM CST TUE FEB 21 2017

NOTE: "FAIR" INDICATES FEW OR NO CLOUDS BELOW 12,000 FEET WITH NO
      SIGNIFICANT WEATHER AND/OR OBSTRUCTIONS TO VISIBILITY.
      SKY/WX - SKY CONDITION AND SIGNIFICANT WEATHER.
      TMP - AIR TEMPERATURE.    DP   - DEWPOINT TEMPERATURE.
      RH  - RELATIVE HUMIDITY.  PRES - PRESSURE.
      HX  - HEAT INDEX.         WCI  - WIND CHILL INDEX.

*  THESE STATIONS ARE NOT NWS OR FAA STATIONS AND ARE NOT UNDER
   NWS QUALITY CONTROL.

LAZ040-048-061>063-065-066-069-212000-
SOUTHEAST LOUISIANA

CITY           SKY/WX    TMP DP  RH WIND       PRES   REMARKS
N.O. AUDUBON   NOT AVBL
N.O. INTL ARPT PTSUNNY   69  58  67 N3        29.90F
N.O. LAKEFRONT SUNNY     66  59  78 NW6       29.91F
N.O. DOWNTOWN*   N/A     69  58  67 VRB3      29.91F
RESERVE*       FAIR      70  54  56 W6        29.90F
SLIDELL        PTSUNNY   69  58  67 VRB6      29.90F
BATON ROUGE    PTSUNNY   73  53  49 W14       29.89F
BOOTHVILLE     CLOUDY    64  60  87 N6        29.92F
BELLE CHASSE   PTSUNNY   70  57  63 VRB6      29.89F
BOGALUSA*      CLOUDY    68  57  66 CALM      29.92F
GALLIANO*      MOCLDY    70  56  59 W6        29.91F
NEW ROADS*     RAIN      59  53  80 W5        29.92F
GONZALES*      MOCLDY    69  54  58 CALM      29.88F
HAMMOND*       MOSUNNY   70  52  52 NW3       29.90F
HOUMA*         NOT AVBL
PORT FOURCHON* PTCLDY    68  57  68 W9        29.92F

$$

LAZ041-044-053-054-212000-
SOUTHWEST LOUISIANA

CITY           SKY/WX    TMP DP  RH WIND       PRES   REMARKS
LAKE CHARLES   MOSUNNY   65  57  75 SE6       29.89F
LAFAYETTE      RAIN      61  56  83 W9        29.92F
PATTERSON      CLOUDY    69  56  62 W7        29.90F
SALT POINT       N/A     68  58  70 SW6       29.89F
NEW IBERIA     LGT RAIN  67  57  70 NW12G20   29.91F
CHENAULT AIRPK MOSUNNY   66  55  68 S5        29.91F

$$

LAZ027-028-212000-
CENTRAL LOUISIANA

CITY           SKY/WX    TMP DP  RH WIND       PRES   REMARKS
FORT POLK      NOT AVBL
ALEXANDRIA INT SUNNY     69  54  58 W5        29.87F
ALEXANDRIA     MOSUNNY   70  54  56 W7        29.88F

$$

LAZ001-002-212000-
NORTHWEST LOUISIANA

CITY           SKY/WX    TMP DP  RH WIND       PRES   REMARKS
SHREVEPORT     CLOUDY    68  56  65 W9        29.87F
BARKSDALE AFB  NOT AVBL
DTN SHREVEPORT CLOUDY    66  56  70 SW8       29.88F

$$

LAZ014-016-212000-
NORTHEAST LOUISIANA

CITY           SKY/WX    TMP DP  RH WIND       PRES   REMARKS
MONROE         PTSUNNY   67  56  67 SW8       29.88F
TALLULAH       PTSUNNY   66  55  67 VRB5      29.89F

$$





USA.gov is the U.S. government's official web portal to all federal, state and local government web resources and services.